When you browse on this site, cookies collect data to enhance your experience and personalize the content and advertising you see.
Visit our Privacy Policy to learn more. By continuing to use the site, you agree to this use of cookies and data.
  • In Lithuania
  • List of Countries
  • For 7 days
  • Water Temperature
  • Weather Map
  • Weather Widgets
  • user-avatar
    Login

    Hourly Weather Encamp

    Today, 31 March, Tuesday

    Time Temperature Precipitation Wind Pressure Humidity
    00:00 -1°C° 0 mm 1 mps 619 mmHg 97%
    01:00 -1°C° 0 mm 1 mps 618 mmHg 96%
    02:00 -2°C° 0 mm 1 mps 618 mmHg 94%
    03:00 -2°C° 0 mm 1 mps 617 mmHg 93%
    04:00 -2°C° 0 mm 1 mps 618 mmHg 93%
    05:00 -1°C° 0 mm 1 mps 618 mmHg 93%
    06:00 -1°C° 0 mm 1 mps 618 mmHg 94%
    07:00 0°C° 0 mm 1 mps 618 mmHg 94%
    08:00 +2°C° 0 mm 1 mps 619 mmHg 94%
    09:00 +3°C° 0 mm 1 mps 620 mmHg 94%
    10:00 +4°C° 0.1 mm 1 mps 620 mmHg 94%
    11:00 +4°C° 0.1 mm 1 mps 620 mmHg 94%
    12:00 +5°C° 0.1 mm 1 mps 620 mmHg 95%
    13:00 +4°C° 0.2 mm 1 mps 620 mmHg 96%
    14:00 +4°C° 0.2 mm 1 mps 620 mmHg 96%
    15:00 +4°C° 0.2 mm 1 mps 619 mmHg 97%
    16:00 +4°C° 0.2 mm 1 mps 619 mmHg 97%
    17:00 +3°C° 0.2 mm 1 mps 619 mmHg 97%
    18:00 +3°C° 0.2 mm 1 mps 619 mmHg 98%
    19:00 +2°C° 0.1 mm 1 mps 619 mmHg 97%
    20:00 +2°C° 0.1 mm 1 mps 619 mmHg 97%
    21:00 +1°C° 0.1 mm 2 mps 619 mmHg 96%
    22:00 +1°C° 0.2 mm 2 mps 619 mmHg 96%
    23:00 +1°C° 0.2 mm 2 mps 619 mmHg 97%

    Tomorrow, 1 April, Wednesday

    Time Temperature Precipitation Wind Pressure Humidity
    00:00 +1°C° 0.2 mm 2 mps 619 mmHg 97%
    01:00 +1°C° 0.1 mm 2 mps 619 mmHg 96%
    02:00 +1°C° 0.1 mm 2 mps 619 mmHg 96%
    03:00 +1°C° 0.1 mm 2 mps 619 mmHg 96%
    04:00 +1°C° 0 mm 2 mps 619 mmHg 96%
    05:00 +1°C° 0 mm 2 mps 619 mmHg 96%
    06:00 -1°C° 0 mm 2 mps 619 mmHg 96%
    07:00 +1°C° 0 mm 2 mps 619 mmHg 95%
    08:00 +2°C° 0 mm 2 mps 620 mmHg 94%
    09:00 +3°C° 0 mm 2 mps 620 mmHg 93%
    10:00 +4°C° 0 mm 2 mps 620 mmHg 91%
    11:00 +5°C° 0 mm 1 mps 621 mmHg 90%
    12:00 +6°C° 0 mm 1 mps 621 mmHg 88%
    13:00 +6°C° 0.2 mm 1 mps 621 mmHg 89%
    14:00 +6°C° 0.2 mm 1 mps 620 mmHg 90%
    15:00 +5°C° 0.2 mm 1 mps 620 mmHg 91%
    16:00 +5°C° 0.3 mm 1 mps 620 mmHg 93%
    17:00 +4°C° 0.3 mm 1 mps 619 mmHg 95%
    18:00 +3°C° 0.3 mm 1 mps 619 mmHg 97%
    19:00 +2°C° 0.2 mm 0 mps 619 mmHg 97%
    20:00 +2°C° 0.2 mm 0 mps 619 mmHg 96%
    21:00 +1°C° 0.2 mm 0 mps 619 mmHg 96%
    22:00 +1°C° 0 mm 0 mps 619 mmHg 96%
    23:00 +1°C° 0 mm 0 mps 619 mmHg 96%

    Day after tomorrow, 2 April, Thursday

    Time Temperature Precipitation Wind Pressure Humidity
    00:00 +1°C° 0 mm 0 mps 619 mmHg 95%
    01:00 +1°C° 0 mm 0 mps 618 mmHg 95%
    02:00 +1°C° 0 mm 0 mps 618 mmHg 95%
    03:00 +1°C° 0 mm 0 mps 618 mmHg 95%
    04:00 +1°C° 0.1 mm 0 mps 618 mmHg 96%
    05:00 +2°C° 0.1 mm 1 mps 618 mmHg 96%
    06:00 +2°C° 0.1 mm 1 mps 618 mmHg 96%
    07:00 +2°C° 0.2 mm 1 mps 618 mmHg 95%
    08:00 +3°C° 0.2 mm 1 mps 619 mmHg 95%
    09:00 +4°C° 0.2 mm 1 mps 619 mmHg 94%
    10:00 +4°C° 0.2 mm 1 mps 619 mmHg 94%
    11:00 +4°C° 0.2 mm 1 mps 619 mmHg 94%
    12:00 +4°C° 0.2 mm 1 mps 620 mmHg 93%
    13:00 +4°C° 0.3 mm 1 mps 619 mmHg 94%
    14:00 +4°C° 0.3 mm 1 mps 619 mmHg 94%
    15:00 +4°C° 0.3 mm 1 mps 619 mmHg 94%
    16:00 +4°C° 0.3 mm 1 mps 619 mmHg 95%
    17:00 +3°C° 0.3 mm 1 mps 619 mmHg 96%
    18:00 +3°C° 0.3 mm 1 mps 618 mmHg 96%
    19:00 +2°C° 0.1 mm 1 mps 619 mmHg 96%
    20:00 +2°C° 0.1 mm 1 mps 619 mmHg 96%
    21:00 +1°C° 0.1 mm 1 mps 619 mmHg 96%
    22:00 +1°C° 0 mm 1 mps 619 mmHg 95%
    23:00 0°C° 0 mm 1 mps 619 mmHg 94%

    3 April, Friday

    Time Temperature Precipitation Wind Pressure Humidity
    00:00 0°C° 0 mm 1 mps 619 mmHg 93%
    01:00 0°C° 0 mm 1 mps 619 mmHg 93%
    02:00 -2°C° 0 mm 2 mps 618 mmHg 93%
    03:00 -3°C° 0 mm 2 mps 618 mmHg 94%
    04:00 -3°C° 0 mm 2 mps 618 mmHg 93%
    05:00 -1°C° 0 mm 1 mps 618 mmHg 93%
    06:00 -1°C° 0 mm 1 mps 619 mmHg 93%
    07:00 +1°C° 0 mm 1 mps 619 mmHg 88%
    08:00 +2°C° 0 mm 1 mps 620 mmHg 84%
    09:00 +4°C° 0 mm 1 mps 621 mmHg 79%
    10:00 +5°C° 0 mm 1 mps 621 mmHg 77%
    11:00 +6°C° 0 mm 1 mps 622 mmHg 74%
    12:00 +7°C° 0 mm 1 mps 622 mmHg 72%
    13:00 +7°C° 0 mm 1 mps 622 mmHg 73%
    14:00 +7°C° 0 mm 1 mps 621 mmHg 75%
    15:00 +6°C° 0 mm 1 mps 621 mmHg 76%
    16:00 +6°C° 0.1 mm 1 mps 621 mmHg 82%
    17:00 +5°C° 0.1 mm 1 mps 620 mmHg 87%
    18:00 +3°C° 0.1 mm 0 mps 620 mmHg 93%
    19:00 +3°C° 0 mm 1 mps 620 mmHg 94%
    20:00 +3°C° 0 mm 1 mps 621 mmHg 94%
    21:00 +2°C° 0 mm 1 mps 621 mmHg 95%
    22:00 +2°C° 0 mm 1 mps 621 mmHg 95%
    23:00 +2°C° 0 mm 1 mps 621 mmHg 95%

    4 April, Saturday

    Time Temperature Precipitation Wind Pressure Humidity
    00:00 +2°C° 0 mm 1 mps 621 mmHg 95%
    01:00 +2°C° 0 mm 1 mps 621 mmHg 95%
    02:00 +2°C° 0 mm 1 mps 621 mmHg 95%
    03:00 +2°C° 0 mm 1 mps 621 mmHg 95%
    04:00 +2°C° 0 mm 1 mps 621 mmHg 94%
    05:00 +2°C° 0 mm 1 mps 621 mmHg 94%
    06:00 +1°C° 0 mm 1 mps 621 mmHg 93%
    07:00 +2°C° 0 mm 2 mps 621 mmHg 89%
    08:00 +3°C° 0 mm 2 mps 622 mmHg 85%
    09:00 +5°C° 0 mm 2 mps 622 mmHg 81%
    10:00 +5°C° 0 mm 2 mps 623 mmHg 80%
    11:00 +6°C° 0 mm 2 mps 623 mmHg 78%
    12:00 +6°C° 0 mm 2 mps 623 mmHg 76%
    13:00 +7°C° 0 mm 2 mps 623 mmHg 75%
    14:00 +7°C° 0 mm 2 mps 623 mmHg 74%
    15:00 +7°C° 0 mm 2 mps 623 mmHg 73%
    16:00 +5°C° 0 mm 2 mps 622 mmHg 77%
    17:00 +4°C° 0 mm 2 mps 622 mmHg 81%
    18:00 +3°C° 0 mm 2 mps 622 mmHg 85%
    19:00 +2°C° 0 mm 2 mps 622 mmHg 87%
    20:00 +1°C° 0 mm 2 mps 622 mmHg 89%
    21:00 -1°C° 0 mm 2 mps 622 mmHg 91%
    22:00 -1°C° 0 mm 2 mps 622 mmHg 90%
    23:00 -1°C° 0 mm 2 mps 622 mmHg 90%

    5 April, Sunday

    Time Temperature Precipitation Wind Pressure Humidity
    00:00 -1°C° 0 mm 2 mps 622 mmHg 89%
    01:00 -1°C° 0 mm 2 mps 622 mmHg 87%
    02:00 -2°C° 0 mm 2 mps 621 mmHg 85%
    03:00 -2°C° 0 mm 2 mps 621 mmHg 84%
    04:00 -2°C° 0 mm 2 mps 621 mmHg 78%
    05:00 -2°C° 0 mm 2 mps 621 mmHg 73%
    06:00 -2°C° 0 mm 2 mps 621 mmHg 67%
    07:00 +1°C° 0 mm 2 mps 622 mmHg 62%
    08:00 +3°C° 0 mm 2 mps 623 mmHg 57%
    09:00 +6°C° 0 mm 2 mps 624 mmHg 52%
    10:00 +7°C° 0 mm 2 mps 624 mmHg 54%
    11:00 +8°C° 0 mm 3 mps 625 mmHg 55%
    12:00 +9°C° 0 mm 3 mps 625 mmHg 57%
    13:00 +9°C° 0 mm 3 mps 625 mmHg 59%
    14:00 +9°C° 0 mm 3 mps 625 mmHg 62%
    15:00 +8°C° 0 mm 3 mps 624 mmHg 64%
    16:00 +7°C° 0 mm 2 mps 624 mmHg 71%
    17:00 +6°C° 0 mm 2 mps 624 mmHg 79%
    18:00 +5°C° 0 mm 2 mps 623 mmHg 86%
    19:00 +4°C° 0 mm 2 mps 623 mmHg 88%
    20:00 +4°C° 0 mm 1 mps 623 mmHg 90%
    21:00 +3°C° 0 mm 1 mps 623 mmHg 92%
    22:00 +3°C° 0 mm 1 mps 623 mmHg 92%
    23:00 +3°C° 0 mm 1 mps 623 mmHg 92%
    Show more